{"data":{"norad_id":65568,"intl_designator":"2025-203D","name":"PRAETORIAN SDA_605","alt_names":[],"object_type":"PAYLOAD","status":"ACTIVE","operator":null,"country":"US","launch_date":"2025-09-10","launch_site_code":"AFWTR","launch_vehicle":null,"mission":null,"orbit_class":"UNKNOWN","rcs_meters":null,"size_class":null,"mass_kg":null,"dimensions":null,"purposes":["military"],"wikipedia_slug":null,"has_3d_model":false,"image_url":null,"decayed_at":null,"tle_current":{"epoch":"2026-05-25T02:37:11.443872Z","epoch_age_seconds":68817,"freshness":"FRESH","line1":"1 65568U 25203D   26145.10916023  .00000080  00000+0  61696-4 0  9991","line2":"2 65568  81.3035  32.1091 0007206 251.6600 108.3772 13.83431346 35500","mean_motion":13.83431346,"eccentricity":0.0007206,"inclination_deg":81.3035,"raan_deg":32.1091,"arg_perigee_deg":251.66,"mean_anomaly_deg":108.3772,"bstar":6.1696e-5,"rev_number":3550,"period_min":104.08901057241,"perigee_km":946.45943731461,"apogee_km":957.02325798924,"semimajor_km":7329.8783476519,"source":"CELESTRAK","updated_at":"2026-05-25T13:38:25.167422Z"}}}